CW9688 Weather Reports


time (UTC)temp
F
wind
direction
speed
knots
gust
knots
rain 1hr
in
rain 24hr
in
rain mn
in
humidity
%
barometer
mb
20260906222306 90 28 2.6 6.1 0.00 0.00 0.00 32 1014.5
20260906221805 90 108 0.9 6.1 0.00 0.00 0.00 33 1014.5
20260906221304 91 57 5.2 7.0 0.00 0.00 0.00 32 1014.5
20260906220805 91 62 0.9 4.3 0.00 0.00 0.00 31 1014.5
20260906215306 90 49 2.6 7.0 0.00 0.00 0.00 33 1014.5
20260906213805 89 13 0.0 6.1 0.00 0.00 0.00 34 1014.5
20260906212805 90 352 2.6 11.3 0.00 0.00 0.00 36 1014.5
20260906212306 90 40 4.3 8.7 0.00 0.00 0.00 36 1014.5
20260906211804 89 6 5.2 10.4 0.00 0.00 0.00 36 1014.5
20260906211304 88 350 4.3 8.7 0.00 0.00 0.00 36 1014.5
20260906210304 88 32 5.2 10.4 0.00 0.00 0.00 34 1014.5
20260906205804 89 51 4.3 8.7 0.00 0.00 0.00 36 1014.5
20260906204805 89 100 2.6 7.0 0.00 0.00 0.00 36 1014.5
20260906204305 88 68 5.2 8.7 0.00 0.00 0.00 38 1014.5
20260906203304 88 183 1.7 8.7 0.00 0.00 0.00 35 1014.5
20260906202804 87 87 5.2 8.7 0.00 0.00 0.00 36 1014.5
20260906201804 87 97 5.2 7.8 0.00 0.00 0.00 37 1014.5
20260906195804 87 168 0.9 6.1 0.00 0.00 0.00 39 1014.5
20260906195306 86 34 3.5 7.0 0.00 0.00 0.00 39 1014.5
20260906194304 87 18 2.6 7.0 0.00 0.00 0.00 37 1014.5
20260906193804 86 137 2.6 7.8 0.00 0.00 0.00 34 1014.5
20260906193304 86 123 2.6 10.4 0.00 0.00 0.00 38 1014.5
20260906192307 85 83 4.3 12.2 0.00 0.00 0.00 40 1014.5
20260906191805 85 85 1.7 7.8 0.00 0.00 0.00 41 1014.5
20260906191305 85 64 3.5 7.8 0.00 0.00 0.00 41 1014.5
20260906190805 86 26 4.3 8.7 0.00 0.00 0.00 43 1014.5
20260906185306 87 192 2.6 7.0 0.00 0.00 0.00 41 1014.5
20260906184805 83 137 0.9 6.1 0.00 0.00 0.00 45 1014.5
20260906184305 83 7 3.5 7.8 0.00 0.00 0.00 47 1014.5
20260906182306 83 327 2.6 6.1 0.00 0.00 0.00 49 1014.5
20260906180805 82 35 1.7 4.3 0.00 0.00 0.00 51 1014.5
20260906175804 81 234 0.9 4.3 0.00 0.00 0.00 51 1014.5
20260906174804 81 332 3.5 6.1 0.00 0.00 0.00 54 1014.5
20260906174305 80 66 3.5 5.2 0.00 0.00 0.00 53 1014.5
20260906173304 79 309 1.7 5.2 0.00 0.00 0.00 56 1014.5
20260906170804 78 255 2.6 4.3 0.00 0.00 0.00 57 1014.5
20260906165805 76 250 0.0 6.1 0.00 0.00 0.00 62 1014.5
20260906164804 76 339 4.3 6.1 0.00 0.00 0.00 61 1014.5
20260906164305 75 295 1.7 4.3 0.00 0.00 0.00 64 1014.5
20260906163805 76 331 3.5 6.1 0.00 0.00 0.00 63 1014.5
20260906162805 75 263 2.6 6.1 0.00 0.00 0.00 64 1014.5
20260906160304 72 328 3.5 6.1 0.00 0.00 0.00 67 1014.5
20260906153805 71 12 4.3 6.1 0.00 0.00 0.00 67 1014.5
20260906153305 71 286 3.5 6.1 0.00 0.00 0.00 69 1014.5
20260906152307 70 330 3.5 6.1 0.00 0.00 0.00 70 1014.5
20260906150805 70 300 4.3 7.0 0.00 0.00 0.00 70 1014.5
20260906145306 68 342 4.3 10.4 0.00 0.00 0.00 72 1012.9
20260906144804 68 317 4.3 7.8 0.00 0.00 0.00 72 1012.9
20260906135306 65 292 3.5 7.0 0.00 0.00 0.00 77 1012.9
20260906134805 65 302 2.6 6.1 0.00 0.00 0.00 78 1012.9
20260906133804 64 297 1.7 5.2 0.00 0.00 0.00 79 1012.9
20260906130304 61 291 0.9 2.6 0.00 0.00 0.00 86 1012.9
20260906125805 61 257 0.9 1.7 0.00 0.00 0.00 87 1012.9
20260906124805 61 203 0.0 0.0 0.00 0.00 0.00 87 1012.9
20260906124304 61 203 0.0 0.0 0.00 0.00 0.00 87 1012.9
20260906122804 61 203 0.0 0.9 0.00 0.00 0.00 86 1012.9
20260906122306 61 203 0.0 0.0 0.00 0.00 0.00 86 1012.9
20260906121304 61 203 0.9 1.7 0.00 0.00 0.00 86 1012.9
20260906120305 61 264 0.9 1.7 0.00 0.00 0.00 86 1012.9
20260906115805 61 317 0.0 1.7 0.00 0.00 0.00 85 1012.9
20260906114804 61 317 0.0 0.9 0.00 0.00 0.00 85 1012.9
20260906113804 61 317 0.0 1.7 0.00 0.00 0.00 85 1012.9
20260906113304 61 317 0.9 2.6 0.00 0.00 0.00 84 1012.9
20260906112804 62 317 0.0 0.9 0.00 0.00 0.00 83 1012.9
20260906111304 62 331 1.7 4.3 0.00 0.00 0.00 83 1012.9
20260906110805 62 321 0.9 2.6 0.00 0.00 0.00 82 1012.9
20260906110304 62 312 0.9 5.2 0.00 0.00 0.00 82 1012.9
20260906105804 63 342 1.7 5.2 0.00 0.00 0.00 82 1012.9
20260906105306 63 337 3.5 6.1 0.00 0.00 0.00 82 1012.9
20260906104305 63 9 2.6 2.6 0.00 0.00 0.00 79 1012.9
20260906102306 63 332 3.5 5.2 0.00 0.00 0.00 76 1012.9
20260906101305 63 338 2.6 4.3 0.00 0.00 0.00 75 1012.9
20260906095805 64 302 0.0 0.9 0.00 0.00 0.00 71 1012.9
20260906094805 64 306 0.9 2.6 0.00 0.00 0.00 69 1012.9
20260906091804 65 14 1.7 4.3 0.00 0.00 0.00 65 1012.9
20260906090804 66 355 0.0 1.7 0.00 0.00 0.00 63 1012.9
20260906090304 66 5 0.9 1.7 0.00 0.00 0.00 62 1012.9
20260906085804 67 289 0.0 0.9 0.00 0.00 0.00 62 1012.9
20260906085306 67 289 0.0 2.6 0.00 0.00 0.00 62 1012.9
20260906084804 67 296 0.9 2.6 0.00 0.00 0.00 62 1012.9
20260906084305 67 290 0.0 2.6 0.00 0.00 0.00 62 1012.9
20260906081304 70 0 4.3 7.8 0.00 0.00 0.00 49 1012.9
20260906075804 71 11 4.3 7.8 0.00 0.00 0.00 47 1012.9
20260906075306 71 19 4.3 6.1 0.00 0.00 0.00 48 1012.9
20260906073804 70 358 4.3 7.0 0.00 0.00 0.00 53 1012.9
20260906072306 70 267 2.6 5.2 0.00 0.00 0.00 50 1012.9
20260906071304 70 319 2.6 6.1 0.00 0.00 0.00 50 1012.9
20260906070804 71 318 2.6 6.1 0.00 0.00 0.00 49 1012.9
20260906065804 71 277 0.9 2.6 0.00 0.00 0.00 48 1012.9
20260906064804 71 259 1.7 4.3 0.00 0.00 0.00 48 1012.9
20260906064304 71 280 0.9 4.3 0.00 0.00 0.00 48 1012.9
20260906063304 71 310 2.6 5.2 0.00 0.00 0.00 50 1012.9
20260906061804 71 226 0.9 0.9 0.00 0.00 0.00 49 1012.9
20260906061304 71 226 0.0 0.9 0.00 0.00 0.00 48 1012.9
20260906060304 72 226 0.0 0.9 0.00 0.00 0.00 47 1012.9
20260906055306 72 279 0.0 0.9 0.00 0.00 0.00 46 1012.9
20260906054304 73 252 0.9 1.7 0.00 0.00 0.00 44 1012.9
20260906053805 73 298 0.9 2.6 0.00 0.00 0.00 44 1012.9
20260906052306 74 225 0.0 2.6 0.00 0.00 0.00 41 1012.9
20260906051804 75 226 0.9 2.6 0.00 0.00 0.00 41 1012.9
20260906051305 75 215 1.7 2.6 0.00 0.00 0.00 41 1012.9
20260906045804 75 242 2.6 5.2 0.00 0.00 0.00 40 1012.9
20260906044304 72 178 3.5 5.2 0.00 0.00 0.00 43 1012.9
20260906043304 72 355 0.0 0.9 0.00 0.00 0.00 43 1012.9
20260906042306 73 9 0.9 2.6 0.00 0.00 0.00 42 1012.9
20260906041804 72 351 0.9 2.6 0.00 0.00 0.00 42 1012.9
20260906040804 73 72 0.0 1.7 0.00 0.00 0.00 41 1012.9
20260906035805 73 26 0.0 0.9 0.00 0.00 0.00 40 1012.9
20260906034804 74 355 0.0 0.9 0.00 0.00 0.00 40 1012.9
20260906034305 74 355 0.0 0.9 0.00 0.00 0.00 39 1012.9
20260906033304 75 355 0.0 1.7 0.00 0.00 0.00 38 1012.9
20260906032306 76 7 0.9 2.6 0.00 0.00 0.00 36 1012.9
20260906031804 77 43 1.7 2.6 0.00 0.00 0.00 35 1012.9
20260906031304 78 19 1.7 2.6 0.00 0.00 0.00 35 1012.9
20260906025306 78 346 4.3 7.0 0.00 0.00 0.00 34 1012.9
20260906024804 78 354 1.7 6.1 0.00 0.00 0.00 34 1012.9
20260906023304 79 350 3.5 7.0 0.00 0.00 0.00 34 1012.9
20260906014304 82 309 5.2 10.4 0.00 0.00 0.00 30 1012.9
20260906013305 82 300 4.3 8.7 0.00 0.00 0.00 30 1012.9
20260906012306 83 303 5.2 7.0 0.00 0.00 0.00 28 1012.9
20260906011304 84 307 4.3 10.4 0.00 0.00 0.00 27 1012.9
20260906004804 86 319 7.0 10.4 0.00 0.00 0.00 26 1012.9
20260906004304 87 318 7.8 14.8 0.00 0.00 0.00 24 1012.9
20260906003804 87 314 2.6 7.8 0.00 0.00 0.00 24 1012.9
20260906003304 87 320 4.3 7.0 0.00 0.00 0.00 24 1012.9
20260906002804 88 338 4.3 7.8 0.00 0.00 0.00 24 1012.9
20260906000804 91 190 0.9 2.6 0.00 0.00 0.00 21 1012.9
20260906000304 90 190 0.9 2.6 0.00 0.00 0.00 21 1012.9
20260905234304 90 137 0.9 2.6 0.00 0.00 0.00 21 1012.9
20260905232805 91 97 2.6 5.2 0.00 0.00 0.00 20 1012.9
20260905232306 91 93 4.3 7.0 0.00 0.00 0.00 22 1012.9
20260905231804 92 75 2.6 5.2 0.00 0.00 0.00 21 1012.9
20260905231305 92 134 2.6 6.1 0.00 0.00 0.00 21 1012.9
20260905230304 93 20 0.9 2.6 0.00 0.00 0.00 21 1012.9
20260905224804 92 72 4.3 6.1 0.00 0.00 0.00 21 1012.9
20260905224304 92 36 2.6 4.3 0.00 0.00 0.00 21 1012.9